Hondo, TX

3:32 PM CDT on October 19, 2017 (GMT -0500)
Hondo Municipal

Weather History for KHDO - October, 2013

Change the Weather History Date:

Friday, October 25, 2013

  Actual Average Record
Temperature  
Mean Temperature 67 °F -  
Max Temperature 82 °F 78 °F 95 °F (2010)
Min Temperature 53 °F 56 °F 34 °F (2005)
Cooling Degree Days 2    
Growing Degree Days 17 (Base 50)    
Moisture  
Dew Point 56 °F    
Average Humidity 67    
Maximum Humidity 90    
Minimum Humidity 40    
Precipitation  
Precipitation 0.01 in - - ()
Sea Level Pressure  
Sea Level Pressure 30.22 in    
Wind  
Wind Speed 7 mph (ESE)    
Max Wind Speed 15 mph    
Max Gust Speed 17 mph    
Visibility 10 miles    
Events Rain    
Averages and records for this station are not official NWS values.
T = Trace of Precipitation, MM = Missing Value Source: NWS Daily Summary

Daily Weather History Graph

Daily Weather History Graph

Search for Another Location

Airport or City:

Trip Planner

Search our weather history database for the weather conditions in past years. The results will help you decide how hot, cold, wet, or windy it might be!

Date:

Astronomy

Oct. 25, 2013 Rise Set
Actual Time 7:44 AM CDT 6:56 PM CDT
Civil Twilight 7:20 AM CDT 7:20 PM CDT
Nautical Twilight 6:52 AM CDT 7:48 PM CDT
Astronomical Twilight 6:25 AM CDT 8:15 PM CDT
Moon No Moon Rise 1:19 PM CDT (10/25)
Length of Visible Light 11h 59m
Length of Day
11h 11m
Waning Gibbous, 62% of the Moon is Illuminated
Oct 25
Waning Gibbous
Oct 26
Last Quarter
Nov 3
New
Nov 9
First Quarter
Nov 17
Full

Hourly Weather History & Observations

Time (CDT) Temp. Heat Index Dew Point Humidity Pressure Visibility Wind Dir Wind Speed Gust Speed Precip Events Conditions
12:51 AM 59.0 °F - 51.1 °F 75% 30.21 in 10.0 mi ENE 3.5 mph - N/A   Clear
1:51 AM 57.0 °F - 52.0 °F 83% 30.21 in 10.0 mi NNE 5.8 mph - N/A   Clear
2:51 AM 55.0 °F - 51.1 °F 86% 30.22 in 10.0 mi NE 5.8 mph - N/A   Clear
3:51 AM 55.9 °F - 52.0 °F 87% 30.22 in 10.0 mi NE 4.6 mph - N/A   Clear
4:51 AM 54.0 °F - 50.0 °F 86% 30.23 in 10.0 mi NNE 6.9 mph - N/A   Clear
5:51 AM 54.0 °F - 51.1 °F 90% 30.24 in 10.0 mi ENE 3.5 mph - N/A   Clear
6:51 AM 53.1 °F - 50.0 °F 89% 30.25 in 10.0 mi North 5.8 mph - N/A   Clear
7:51 AM 54.0 °F - 50.0 °F 86% 30.26 in 8.0 mi NNE 6.9 mph - N/A   Clear
8:51 AM 62.1 °F - 57.0 °F 84% 30.27 in 10.0 mi ENE 5.8 mph - N/A   Clear
9:51 AM 68.0 °F - 59.0 °F 73% 30.30 in 10.0 mi ENE 8.1 mph - N/A   Mostly Cloudy
10:51 AM 73.0 °F - 60.1 °F 64% 30.31 in 10.0 mi ESE 8.1 mph - N/A   Partly Cloudy
11:51 AM 77.0 °F - 59.0 °F 54% 30.29 in 10.0 mi SE 11.5 mph - N/A   Mostly Cloudy
12:51 PM 79.0 °F - 57.9 °F 48% 30.27 in 10.0 mi South 12.7 mph - N/A   Scattered Clouds
1:51 PM 80.1 °F 80.6 °F 57.9 °F 47% 30.24 in 10.0 mi SSE 15.0 mph - N/A   Scattered Clouds
2:51 PM 80.1 °F 80.1 °F 55.0 °F 42% 30.20 in 10.0 mi SSE 10.4 mph - N/A   Scattered Clouds
3:51 PM 81.0 °F 80.8 °F 55.9 °F 42% 30.18 in 10.0 mi SE 9.2 mph - N/A   Mostly Cloudy
4:51 PM 80.1 °F 80.0 °F 54.0 °F 40% 30.18 in 10.0 mi South 8.1 mph - N/A   Mostly Cloudy
5:51 PM 80.1 °F 80.2 °F 55.9 °F 43% 30.17 in 10.0 mi SE 6.9 mph - N/A   Mostly Cloudy
6:51 PM 78.1 °F - 57.0 °F 48% 30.17 in 10.0 mi SE 12.7 mph 17.3 mph N/A   Mostly Cloudy
7:51 PM 75.9 °F - 59.0 °F 56% 30.18 in 10.0 mi ESE 8.1 mph - N/A   Overcast
8:51 PM 73.9 °F - 62.1 °F 66% 30.19 in 9.0 mi SE 9.2 mph - 0.01 in Rain Rain
9:51 PM 73.0 °F - 63.0 °F 71% 30.19 in 10.0 mi SE 13.8 mph - 0.00 in   Overcast
10:51 PM 72.0 °F - 62.1 °F 71% 30.20 in 10.0 mi SE 13.8 mph - N/A   Overcast
11:51 PM 72.0 °F - 63.0 °F 73% 30.20 in 10.0 mi SE 10.4 mph - N/A   Overcast